User: anonymous   Login
Location: Cran-Gévrier
(45.9039°N, 6.1012°E)
Time: 02:42:14
(UTC+00:00)
Language:

Radarsat Rocket - Orbit

View from above orbital plane
View from above orbital plane
View from above satellite
View from above satellite

Ground track
Ground track

The orbit data is extracted from the following two-line orbital elements,

1 23711U 95059B   23152.08967851 -.00000030  00000-0  25491-4 0  9998
2 23711 100.5954 171.6298 0368570  91.1178 339.8408 13.12761634320981
Epoch (UTC): 01 June 2023 02:09:08
Eccentricity: 0.0368570
inclination: 100.5954°
perigee height: 933 km
apogee height: 1492 km
right ascension of ascending node: 171.6298°
argument of perigee: 91.1178°
revolutions per day: 13.12761634
mean anomaly at epoch: 339.8408°
orbit number at epoch: 32098

The dashed part of the orbit path shows where the satellite is in the earth's shadow,  

DLR